CW1648 Weather Reports


time (UTC)temp
C
wind
direction
speed
KPH
gust
KPH
rain 1hr
cm
rain 24hr
cm
rain mn
cm
humidity
%
barometer
mb
20260504003312 12 0 0.0 0.0 0.00 0.00 0.00 41 1010.3
20260504003212 12 0 0.0 0.0 0.00 0.00 0.00 41 1010.3
20260504003111 12 0 0.0 0.0 0.00 0.00 0.00 41 1010.3
20260504003020 12 360 0.0 0.0 0.00 0.00 0.00 40 1010.2
20260504003011 12 0 0.0 0.0 0.00 0.00 0.00 40 1010.3
20260504002910 12 0 0.0 0.0 0.00 0.00 0.00 40 1010.3
20260504002809 12 0 0.0 0.0 0.00 0.00 0.00 40 1010.2
20260504002709 12 0 0.0 0.0 0.00 0.00 0.00 40 1010.2
20260504002649 13 0 0.0 0.0 0.00 0.00 0.00 40 1010.2
20260504002606 13 0 0.0 0.0 0.00 0.00 0.00 40 1010.3
20260504002534 13 0 0.0 0.0 0.00 0.00 0.00 40 1010.2
20260504002521 13 360 0.0 0.0 0.00 0.00 0.00 40 1010.1
20260504002416 13 0 0.0 0.0 0.00 0.00 0.00 39 1010.2
20260504002411 13 0 0.0 0.0 0.00 0.00 0.00 40 1010.2
20260504002203 13 0 0.0 0.0 0.00 0.00 0.00 39 1010.2
20260504002102 13 0 0.0 0.0 0.00 0.00 0.00 39 1010.2
20260504002020 13 360 0.0 0.0 0.00 0.00 0.00 39 1010.1
20260504002003 13 0 0.0 0.0 0.00 0.00 0.00 39 1010.2
20260504001925 13 0 0.0 0.0 0.00 0.00 0.00 39 1010.2
20260504001902 13 0 0.0 0.0 0.00 0.00 0.00 39 1010.2
20260504001801 13 0 0.0 0.0 0.00 0.00 0.00 39 1010.2
20260504001702 13 0 0.0 0.0 0.00 0.00 0.00 39 1010.2
20260504001602 13 0 0.0 0.0 0.00 0.00 0.00 39 1010.2
20260504001520 13 360 0.0 0.0 0.00 0.00 0.00 39 1010.1
20260504001502 13 0 0.0 0.0 0.00 0.00 0.00 39 1010.2
20260504001424 13 0 0.0 0.0 0.00 0.00 0.00 39 1010.2
20260504001400 13 0 0.0 0.0 0.00 0.00 0.00 39 1010.1
20260504001300 13 0 0.0 0.0 0.00 0.00 0.00 38 1010.1
20260504001200 13 0 0.0 0.0 0.00 0.00 0.00 38 1010.1
20260504001059 13 0 0.0 0.0 0.00 0.00 0.00 38 1010.1
20260504001020 13 360 0.0 0.0 0.00 0.00 0.00 38 1010.0
20260504000959 13 0 0.0 0.0 0.00 0.00 0.00 38 1010.1
20260504000923 13 0 0.0 0.0 0.00 0.00 0.00 38 1010.1
20260504000858 13 0 0.0 0.0 0.00 0.00 0.00 38 1010.1
20260504000758 13 0 0.0 0.0 0.00 0.00 0.00 38 1010.0
20260504000657 13 0 0.0 0.0 0.00 0.00 0.00 37 1010.1
20260504000556 13 0 0.0 0.0 0.00 0.00 0.00 38 1010.0
20260504000520 13 360 0.0 0.0 0.00 0.00 0.00 38 1009.9
20260504000456 13 0 0.0 0.0 0.00 0.00 0.00 38 1010.0
20260504000423 13 0 0.0 0.0 0.00 0.00 0.00 38 1010.0
20260504000417 13 0 0.0 0.0 0.00 0.00 0.00 38 1010.0
20260504000303 13 0 0.0 0.0 0.00 0.00 0.00 38 1010.0
20260504000108 13 0 0.0 0.0 0.00 0.00 0.00 38 1010.0
20260504000103 13 0 0.0 0.0 0.00 0.00 0.00 38 1010.0
20260504000020 13 360 0.0 0.0 0.00 0.00 0.00 38 1009.9
20260503235922 13 0 0.0 0.0 0.00 0.00 0.00 38 1010.0
20260503235914 13 0 0.0 0.0 0.00 0.00 0.00 38 1010.0
20260503235800 13 0 0.0 0.0 0.00 0.00 0.00 38 1009.9
20260503235551 13 0 0.0 0.0 0.00 0.00 0.00 37 1009.9
20260503235520 13 360 0.0 0.0 0.00 0.00 0.00 37 1009.8
20260503235509 13 0 0.0 1.6 0.00 0.00 0.00 37 1009.9
20260503235457 13 0 0.0 1.6 0.00 0.00 0.00 37 1009.9
20260503235249 13 0 0.0 1.6 0.00 0.00 0.00 38 1009.9
20260503235149 14 0 0.0 1.6 0.00 0.00 0.00 37 1009.8
20260503235048 14 0 0.0 1.6 0.00 0.00 0.00 38 1009.8
20260503235020 14 360 0.0 0.0 0.00 0.00 0.00 38 1009.7
20260503235006 14 0 0.0 1.6 0.00 0.00 0.00 37 1009.8
20260503234954 14 0 0.0 1.6 0.00 0.00 0.00 38 1009.8
20260503234747 14 0 0.0 1.6 0.00 0.00 0.00 37 1009.8
20260503234646 14 0 0.0 1.6 0.00 0.00 0.00 37 1009.8
20260503234559 14 0 0.0 0.0 0.00 0.00 0.00 36 1009.8
20260503234555 14 0 0.0 1.6 0.00 0.00 0.00 37 1009.8
20260503234520 14 360 0.0 0.0 0.00 0.00 0.00 37 1009.7
20260503234416 14 0 0.0 0.0 0.00 0.00 0.00 36 1009.8
20260503234358 14 0 0.0 0.0 0.00 0.00 0.00 36 1009.7
20260503234354 14 0 0.0 0.0 0.00 0.00 0.00 37 1009.8
20260503234201 14 0 0.0 3.2 0.00 0.00 0.00 36 1009.8
20260503234157 14 0 0.0 3.2 0.00 0.00 0.00 37 1009.7
20260503234153 14 0 0.0 0.0 0.00 0.00 0.00 36 1009.7
20260503234023 14 0 0.0 3.2 0.00 0.00 0.00 36 1009.7
20260503234020 14 360 0.0 3.2 0.00 0.00 0.00 36 1009.6
20260503233842 14 0 0.0 3.2 0.00 0.00 0.00 37 1009.8
20260503233742 14 0 0.0 3.2 0.00 0.00 0.00 36 1009.7
20260503233642 14 0 0.0 3.2 0.00 0.00 0.00 36 1009.7
20260503233542 14 0 0.0 3.2 0.00 0.00 0.00 35 1009.7
20260503233520 15 360 0.0 3.2 0.00 0.00 0.00 36 1009.6
20260503233414 14 0 0.0 3.2 0.00 0.00 0.00 36 1009.7
20260503233408 15 0 0.0 3.2 0.00 0.00 0.00 36 1009.8
20260503233402 15 0 0.0 4.8 0.00 0.00 0.00 36 1009.8
20260503233358 14 0 0.0 3.2 0.00 0.00 0.00 36 1009.7
20260503233039 15 0 0.0 6.4 0.00 0.00 0.00 36 1009.8
20260503233035 15 360 0.0 6.4 0.00 0.00 0.00 36 1009.6
20260503232939 15 0 0.0 6.4 0.00 0.00 0.00 36 1009.8
20260503232913 15 0 0.0 6.4 0.00 0.00 0.00 35 1009.7
20260503232838 15 0 0.0 6.4 0.00 0.00 0.00 35 1009.7
20260503232737 15 0 0.0 6.4 0.00 0.00 0.00 35 1009.7
20260503232638 15 0 0.0 6.4 0.00 0.00 0.00 35 1009.8
20260503232537 15 0 0.0 6.4 0.00 0.00 0.00 35 1009.8
20260503232520 15 360 0.0 6.4 0.00 0.00 0.00 35 1009.6
20260503232413 15 0 0.0 6.4 0.00 0.00 0.00 34 1009.8
20260503232336 15 0 0.0 6.4 0.00 0.00 0.00 34 1009.8
20260503232236 15 0 0.0 6.4 0.00 0.00 0.00 34 1009.7
20260503232135 15 0 0.0 6.4 0.00 0.00 0.00 35 1009.7
20260503232035 15 0 0.0 3.2 0.00 0.00 0.00 35 1009.7
20260503232020 15 360 0.0 3.2 0.00 0.00 0.00 35 1009.5
20260503231913 15 0 0.0 3.2 0.00 0.00 0.00 34 1009.7
20260503231834 15 0 0.0 3.2 0.00 0.00 0.00 34 1009.7
20260503231733 15 0 0.0 3.2 0.00 0.00 0.00 34 1009.8
20260503231633 15 0 0.0 3.2 0.00 0.00 0.00 35 1009.7
20260503231535 15 360 0.0 3.2 0.00 0.00 0.00 34 1009.5
20260503231533 15 0 0.0 3.2 0.00 0.00 0.00 34 1009.7
20260503231413 15 0 0.0 3.2 0.00 0.00 0.00 34 1009.7
20260503231345 15 0 0.0 3.2 0.00 0.00 0.00 34 1009.7
20260503231341 15 0 0.0 3.2 0.00 0.00 0.00 34 1009.7
20260503231130 15 0 0.0 3.2 0.00 0.00 0.00 33 1009.7
20260503231030 15 0 0.0 3.2 0.00 0.00 0.00 34 1009.7
20260503231020 15 360 0.0 1.6 0.00 0.00 0.00 34 1009.5
20260503230911 15 0 0.0 1.6 0.00 0.00 0.00 34 1009.7
20260503230829 15 0 0.0 3.2 0.00 0.00 0.00 35 1009.7
20260503230729 15 0 0.0 3.2 0.00 0.00 0.00 34 1009.7
20260503230628 15 0 0.0 6.4 0.00 0.00 0.00 34 1009.7
20260503230600 15 0 0.0 6.4 0.00 0.00 0.00 33 1009.7
20260503230556 15 0 0.0 6.4 0.00 0.00 0.00 33 1009.7
20260503230551 15 0 0.0 6.4 0.00 0.00 0.00 33 1009.7
20260503230520 15 360 0.0 6.4 0.00 0.00 0.00 33 1009.5
20260503230434 15 0 0.0 6.4 0.00 0.00 0.00 33 1009.7
20260503230227 15 0 0.0 12.9 0.00 0.00 0.00 33 1009.7
20260503230126 15 0 0.0 12.9 0.00 0.00 0.00 33 1009.7
20260503230039 15 0 0.0 12.9 0.00 0.00 0.00 32 1009.6
20260503230035 15 0 0.0 12.9 0.00 0.00 0.00 33 1009.6
20260503230020 15 360 0.0 12.9 0.00 0.00 0.00 33 1009.4
20260503225911 15 0 0.0 12.9 0.00 0.00 0.00 32 1009.6
20260503225824 15 0 0.0 12.9 0.00 0.00 0.00 33 1009.6
20260503225723 15 0 0.0 12.9 0.00 0.00 0.00 34 1009.6
20260503225622 15 0 0.0 12.9 0.00 0.00 0.00 33 1009.6
20260503225522 16 0 0.0 12.9 0.00 0.00 0.00 33 1009.6
20260503225520 16 360 3.2 12.9 0.00 0.00 0.00 32 1009.4
20260503225411 16 0 0.0 12.9 0.00 0.00 0.00 33 1009.6
20260503225321 16 0 0.0 12.9 0.00 0.00 0.00 33 1009.6
20260503225219 16 0 0.0 12.9 0.00 0.00 0.00 33 1009.6
20260503225147 16 0 0.0 12.9 0.00 0.00 0.00 33 1009.6
20260503225143 16 0 0.0 12.9 0.00 0.00 0.00 32 1009.6
20260503225137 16 0 0.0 12.9 0.00 0.00 0.00 32 1009.6
20260503225020 16 360 0.0 12.9 0.00 0.00 0.00 33 1009.4
20260503224908 16 0 0.0 12.9 0.00 0.00 0.00 33 1009.6
20260503224831 16 0 0.0 12.9 0.00 0.00 0.00 33 1009.6
20260503224827 16 0 0.0 12.9 0.00 0.00 0.00 32 1009.6
20260503224631 16 0 0.0 4.8 0.00 0.00 0.00 32 1009.6
20260503224617 16 0 0.0 4.8 0.00 0.00 0.00 32 1009.6
20260503224526 16 0 0.0 4.8 0.00 0.00 0.00 32 1009.6
20260503224520 16 360 0.0 4.8 0.00 0.00 0.00 32 1009.4
20260503224517 16 0 0.0 4.8 0.00 0.00 0.00 32 1009.6
20260503224315 16 0 0.0 4.8 0.00 0.00 0.00 32 1009.7
20260503224215 16 0 0.0 4.8 0.00 0.00 0.00 33 1009.6
20260503224128 16 0 0.0 4.8 0.00 0.00 0.00 32 1009.7
20260503224124 16 0 0.0 4.8 0.00 0.00 0.00 31 1009.7
20260503224051 16 360 0.0 4.8 0.00 0.00 0.00 32 1009.5
20260503223908 16 0 0.0 4.8 0.00 0.00 0.00 31 1009.7
20260503223827 16 0 0.0 4.8 0.00 0.00 0.00 31 1009.7
20260503223823 16 0 0.0 4.8 0.00 0.00 0.00 31 1009.7
20260503223627 16 0 0.0 6.4 0.00 0.00 0.00 31 1009.6
20260503223623 16 0 0.0 6.4 0.00 0.00 0.00 31 1009.7
20260503223521 16 360 0.0 6.4 0.00 0.00 0.00 31 1009.4
20260503223408 16 0 0.0 6.4 0.00 0.00 0.00 32 1009.7
20260503223313 16 0 0.0 9.7 0.00 0.00 0.00 32 1009.6
20260503223243 16 0 0.0 9.7 0.00 0.00 0.00 32 1009.7
20260503223112 16 0 0.0 17.7 0.00 0.00 0.00 32 1009.7
20260503223024 16 0 0.0 17.7 0.00 0.00 0.00 32 1009.7
20260503223021 16 360 0.0 17.7 0.00 0.00 0.00 32 1009.5
20260503223015 16 0 0.0 17.7 0.00 0.00 0.00 32 1009.6
20260503222822 16 0 0.0 17.7 0.00 0.00 0.00 31 1009.6
20260503222818 16 0 0.0 17.7 0.00 0.00 0.00 32 1009.6
20260503222609 16 0 0.0 17.7 0.00 0.00 0.00 31 1009.6
20260503222535 16 360 0.0 17.7 0.00 0.00 0.00 31 1009.4
20260503222506 16 0 0.0 17.7 0.00 0.00 0.00 31 1009.6
20260503222425 16 0 0.0 17.7 0.00 0.00 0.00 31 1009.6
20260503222416 16 0 0.0 17.7 0.00 0.00 0.00 32 1009.6
20260503222205 16 248 0.0 17.7 0.00 0.00 0.00 31 1009.6
20260503222104 16 265 0.0 22.5 0.00 0.00 0.00 31 1009.5
20260503222020 16 290 0.0 22.5 0.00 0.00 0.00 31 1009.4
20260503222004 16 288 0.0 22.5 0.00 0.00 0.00 31 1009.6
20260503221905 16 246 0.0 22.5 0.00 0.00 0.00 31 1009.5
20260503221803 16 236 0.0 22.5 0.00 0.00 0.00 31 1009.5
20260503221703 16 225 0.0 22.5 0.00 0.00 0.00 31 1009.5
20260503221602 16 0 0.0 22.5 0.00 0.00 0.00 32 1009.5
20260503221520 16 360 0.0 22.5 0.00 0.00 0.00 32 1009.2
20260503221501 16 0 0.0 22.5 0.00 0.00 0.00 31 1009.4
20260503221406 16 0 0.0 22.5 0.00 0.00 0.00 31 1009.5
20260503221400 16 0 0.0 22.5 0.00 0.00 0.00 31 1009.5
20260503221300 16 0 0.0 22.5 0.00 0.00 0.00 30 1009.5
20260503221200 16 0 0.0 22.5 0.00 0.00 0.00 30 1009.5
20260503221059 16 268 0.0 14.5 0.00 0.00 0.00 30 1009.5
20260503221035 16 237 0.0 14.5 0.00 0.00 0.00 31 1009.2
20260503220958 16 248 0.0 14.5 0.00 0.00 0.00 31 1009.4
20260503220904 16 223 0.0 12.9 0.00 0.00 0.00 31 1009.5
20260503220859 16 221 0.0 12.9 0.00 0.00 0.00 31 1009.5
20260503220757 16 263 0.0 12.9 0.00 0.00 0.00 31 1009.5
20260503220657 16 0 0.0 12.9 0.00 0.00 0.00 31 1009.5
20260503220556 16 0 0.0 12.9 0.00 0.00 0.00 30 1009.5
20260503220535 16 360 0.0 12.9 0.00 0.00 0.00 30 1009.3
20260503220456 16 0 0.0 12.9 0.00 0.00 0.00 30 1009.5
20260503220401 16 0 0.0 12.9 0.00 0.00 0.00 30 1009.5
20260503220356 16 0 0.0 12.9 0.00 0.00 0.00 31 1009.5
20260503220253 16 0 0.0 12.9 0.00 0.00 0.00 31 1009.5
20260503220153 16 0 0.0 12.9 0.00 0.00 0.00 31 1009.5
20260503220053 16 0 0.0 9.7 0.00 0.00 0.00 31 1009.6
20260503220020 16 360 0.0 22.5 0.00 0.00 0.00 32 1009.4
20260503215951 16 0 1.6 24.1 0.00 0.00 0.00 32 1009.6
20260503215858 16 0 1.6 24.1 0.00 0.00 0.00 32 1009.5
20260503215850 16 0 1.6 24.1 0.00 0.00 0.00 31 1009.5
20260503215749 16 0 1.6 24.1 0.00 0.00 0.00 30 1009.5
20260503215649 16 0 1.6 24.1 0.00 0.00 0.00 31 1009.5
20260503215549 16 0 1.6 24.1 0.00 0.00 0.00 31 1009.5
20260503215520 16 360 0.0 24.1 0.00 0.00 0.00 30 1009.4
20260503215447 16 0 1.6 24.1 0.00 0.00 0.00 30 1009.6
20260503215406 16 0 1.6 24.1 0.00 0.00 0.00 31 1009.5
20260503215355 16 0 1.6 24.1 0.00 0.00 0.00 30 1009.5
20260503215146 16 0 1.6 24.1 0.00 0.00 0.00 29 1009.5
20260503215100 16 225 0.0 19.3 0.00 0.00 0.00 30 1009.5
20260503215054 16 0 1.6 24.1 0.00 0.00 0.00 29 1009.5
20260503215020 16 281 22.5 24.1 0.00 0.00 0.00 30 1009.3
20260503214859 16 246 0.0 14.5 0.00 0.00 0.00 29 1009.5
20260503214845 16 298 0.0 14.5 0.00 0.00 0.00 29 1009.5
20260503214744 16 226 0.0 14.5 0.00 0.00 0.00 30 1009.5
20260503214644 16 260 0.0 4.8 0.00 0.00 0.00 31 1009.5
20260503214543 16 276 0.0 11.3 0.00 0.00 0.00 31 1009.5
20260503214520 16 286 0.0 11.3 0.00 0.00 0.00 31 1009.3
20260503214443 16 254 0.0 11.3 0.00 0.00 0.00 31 1009.5
20260503214402 16 250 0.0 11.3 0.00 0.00 0.00 30 1009.5
20260503214358 16 264 0.0 11.3 0.00 0.00 0.00 31 1009.4
20260503214351 16 267 0.0 11.3 0.00 0.00 0.00 31 1009.4
20260503214142 16 284 0.0 11.3 0.00 0.00 0.00 30 1009.5
20260503214123 16 250 1.6 14.5 0.00 0.00 0.00 31 1009.5
20260503214041 16 289 1.6 14.5 0.00 0.00 0.00 30 1009.5
20260503214035 16 238 0.0 14.5 0.00 0.00 0.00 30 1009.3
20260503214007 16 291 1.6 14.5 0.00 0.00 0.00 30 1009.5
20260503213840 16 302 1.6 14.5 0.00 0.00 0.00 31 1009.5
20260503213738 16 232 1.6 14.5 0.00 0.00 0.00 30 1009.4
20260503213638 16 195 1.6 14.5 0.00 0.00 0.00 32 1009.4
20260503213536 16 241 1.6 14.5 0.00 0.00 0.00 32 1009.4
20260503213436 16 294 1.6 14.5 0.00 0.00 0.00 30 1009.4
20260503213359 16 272 1.6 14.5 0.00 0.00 0.00 30 1009.3
20260503213336 16 243 1.6 14.5 0.00 0.00 0.00 30 1009.3
20260503213235 16 241 1.6 20.9 0.00 0.00 0.00 30 1009.4
20260503213135 16 259 1.6 20.9 0.00 0.00 0.00 30 1009.4
20260503213050 16 238 1.6 20.9 0.00 0.00 0.00 33 1009.4
20260503213045 16 211 0.0 20.9 0.00 0.00 0.00 31 1009.3
20260503213035 16 268 0.0 20.9 0.00 0.00 0.00 31 1009.2
20260503212856 16 247 1.6 20.9 0.00 0.00 0.00 32 1009.4
20260503212851 16 0 1.6 20.9 0.00 0.00 0.00 30 1009.5
20260503212846 16 225 1.6 20.9 0.00 0.00 0.00 32 1009.4
20260503212634 16 0 1.6 20.9 0.00 0.00 0.00 31 1009.4
20260503212535 16 0 1.6 20.9 0.00 0.00 0.00 31 1009.4
20260503212520 16 360 0.0 20.9 0.00 0.00 0.00 31 1009.2
20260503212434 16 0 1.6 20.9 0.00 0.00 0.00 30 1009.4
20260503212348 16 0 1.6 17.7 0.00 0.00 0.00 30 1009.4
20260503212342 16 0 1.6 20.9 0.00 0.00 0.00 30 1009.4
20260503212133 16 0 1.6 24.1 0.00 0.00 0.00 29 1009.4
20260503212114 16 0 1.6 24.1 0.00 0.00 0.00 31 1009.5
20260503212032 16 0 1.6 24.1 0.00 0.00 0.00 29 1009.5
20260503212020 16 360 0.0 24.1 0.00 0.00 0.00 31 1009.3
20260503212002 16 0 1.6 24.1 0.00 0.00 0.00 31 1009.5
20260503211831 16 0 1.6 24.1 0.00 0.00 0.00 31 1009.5
20260503211730 16 0 1.6 24.1 0.00 0.00 0.00 31 1009.4
20260503211630 16 0 1.6 24.1 0.00 0.00 0.00 31 1009.4
20260503211530 16 0 1.6 24.1 0.00 0.00 0.00 31 1009.4
20260503211520 16 360 0.0 24.1 0.00 0.00 0.00 30 1009.3
20260503211428 16 0 1.6 24.1 0.00 0.00 0.00 30 1009.5
20260503211328 16 0 1.6 24.1 0.00 0.00 0.00 30 1009.4
20260503211228 16 0 1.6 24.1 0.00 0.00 0.00 30 1009.3
20260503211214 16 0 1.6 22.5 0.00 0.00 0.00 30 1009.4
20260503211211 16 0 1.6 22.5 0.00 0.00 0.00 29 1009.4
20260503211205 16 0 1.6 22.5 0.00 0.00 0.00 29 1009.4
20260503211159 16 0 1.6 22.5 0.00 0.00 0.00 32 1009.4
20260503211041 16 0 1.6 22.5 0.00 0.00 0.00 29 1009.5
20260503211035 16 360 0.0 20.9 0.00 0.00 0.00 30 1009.3
20260503210725 16 0 1.6 22.5 0.00 0.00 0.00 29 1009.4
20260503210643 16 0 1.6 22.5 0.00 0.00 0.00 30 1009.4
20260503210638 16 0 0.0 22.5 0.00 0.00 0.00 31 1009.4
20260503210633 16 0 1.6 22.5 0.00 0.00 0.00 31 1009.4
20260503210520 16 360 0.0 19.3 0.00 0.00 0.00 30 1009.2
20260503210501 15 0 1.6 22.5 0.00 0.00 0.00 29 1009.4
20260503210324 16 0 0.0 22.5 0.00 0.00 0.00 31 1009.4
20260503210238 16 0 1.6 17.7 0.00 0.00 0.00 31 1009.4
20260503210232 16 0 1.6 17.7 0.00 0.00 0.00 29 1009.4
20260503210023 16 0 1.6 17.7 0.00 0.00 0.00 31 1009.4
20260503210020 16 360 0.0 17.7 0.00 0.00 0.00 31 1009.3
20260503205936 16 0 1.6 17.7 0.00 0.00 0.00 30 1009.5
20260503205927 16 0 1.6 17.7 0.00 0.00 0.00 30 1009.5
20260503205746 16 0 0.0 17.7 0.00 0.00 0.00 30 1009.4
20260503205741 16 0 1.6 17.7 0.00 0.00 0.00 30 1009.3
20260503205628 16 0 1.6 17.7 0.00 0.00 0.00 30 1009.3
20260503205535 16 360 0.0 17.7 0.00 0.00 0.00 30 1009.3
20260503205459 16 0 0.0 17.7 0.00 0.00 0.00 30 1009.5
20260503205331 16 0 0.0 9.7 0.00 0.00 0.00 31 1009.4
20260503205326 16 0 0.0 17.7 0.00 0.00 0.00 30 1009.4
20260503205116 16 0 0.0 14.5 0.00 0.00 0.00 30 1009.4
20260503205059 16 0 0.0 14.5 0.00 0.00 0.00 31 1009.6
20260503205052 16 0 0.0 14.5 0.00 0.00 0.00 31 1009.4
20260503205020 16 360 0.0 14.5 0.00 0.00 0.00 31 1009.3
20260503204939 16 0 0.0 14.5 0.00 0.00 0.00 31 1009.5
20260503204931 16 0 0.0 14.5 0.00 0.00 0.00 31 1009.5
20260503204628 16 0 1.6 27.4 0.00 0.00 0.00 32 1009.6
20260503204623 16 0 1.6 27.4 0.00 0.00 0.00 31 1009.5
20260503204520 16 360 0.0 25.7 0.00 0.00 0.00 32 1009.4
20260503204412 16 0 1.6 27.4 0.00 0.00 0.00 31 1009.6
20260503204351 16 0 1.6 27.4 0.00 0.00 0.00 31 1009.6
20260503204328 16 0 1.6 27.4 0.00 0.00 0.00 31 1009.7
20260503204323 16 0 1.6 27.4 0.00 0.00 0.00 30 1009.6
20260503204112 16 0 1.6 27.4 0.00 0.00 0.00 31 1009.6
20260503204021 16 360 0.0 25.7 0.00 0.00 0.00 31 1009.4
20260503204012 16 0 1.6 27.4 0.00 0.00 0.00 31 1009.6
20260503203912 16 0 1.6 27.4 0.00 0.00 0.00 30 1009.6
20260503203849 16 0 1.6 27.4 0.00 0.00 0.00 30 1009.6
20260503203825 16 0 1.6 14.5 0.00 0.00 0.00 32 1009.5
20260503203820 16 0 0.0 27.4 0.00 0.00 0.00 31 1009.6
20260503203608 16 0 1.6 14.5 0.00 0.00 0.00 32 1009.5
20260503203520 16 360 0.0 14.5 0.00 0.00 0.00 31 1009.3
20260503203507 16 0 1.6 14.5 0.00 0.00 0.00 29 1009.5
20260503203406 16 0 1.6 14.5 0.00 0.00 0.00 29 1009.5
20260503203349 16 0 1.6 14.5 0.00 0.00 0.00 29 1009.5
20260503203306 16 0 1.6 14.5 0.00 0.00 0.00 30 1009.6
20260503203246 16 0 1.6 14.5 0.00 0.00 0.00 30 1009.7
20260503203241 16 0 1.6 22.5 0.00 0.00 0.00 30 1009.7
20260503203237 16 0 1.6 22.5 0.00 0.00 0.00 31 1009.7
20260503203231 16 0 1.6 14.5 0.00 0.00 0.00 29 1009.6
20260503203036 16 360 0.0 19.3 0.00 0.00 0.00 30 1009.5
20260503202847 16 0 1.6 22.5 0.00 0.00 0.00 31 1009.7
20260503202803 16 0 1.6 22.5 0.00 0.00 0.00 30 1009.7
20260503202702 16 0 1.6 22.5 0.00 0.00 0.00 30 1009.7
20260503202601 16 0 1.6 22.5 0.00 0.00 0.00 31 1009.6
20260503202528 16 0 1.6 22.5 0.00 0.00 0.00 32 1009.7
20260503202521 16 360 6.4 19.3 0.00 0.00 0.00 32 1009.5
20260503202408 16 0 1.6 22.5 0.00 0.00 0.00 31 1009.6
20260503202200 16 0 1.6 22.5 0.00 0.00 0.00 30 1009.6
20260503202112 16 0 1.6 14.5 0.00 0.00 0.00 32 1009.7
20260503202059 16 0 0.0 22.5 0.00 0.00 0.00 32 1009.7
20260503202020 16 360 0.0 14.5 0.00 0.00 0.00 32 1009.5
20260503202003 16 0 1.6 14.5 0.00 0.00 0.00 32 1009.7
20260503201954 16 0 1.6 14.5 0.00 0.00 0.00 32 1009.7
20260503201758 16 0 1.6 14.5 0.00 0.00 0.00 32 1009.7
20260503201710 16 0 0.0 14.5 0.00 0.00 0.00 31 1009.7
20260503201705 16 0 1.6 14.5 0.00 0.00 0.00 30 1009.8
20260503201542 16 0 0.0 9.7 0.00 0.00 0.00 30 1009.7
20260503201537 16 0 0.0 9.7 0.00 0.00 0.00 32 1009.8
20260503201532 16 0 1.6 9.7 0.00 0.00 0.00 30 1009.8
20260503201527 16 0 0.0 9.7 0.00 0.00 0.00 31 1009.7
20260503201520 16 360 0.0 9.7 0.00 0.00 0.00 31 1009.5
20260503201411 16 0 0.0 9.7 0.00 0.00 0.00 31 1009.7
20260503201053 16 0 1.6 29.0 0.00 0.00 0.00 29 1009.7
20260503201020 16 360 0.0 29.0 0.00 0.00 0.00 30 1009.6
20260503200953 16 0 1.6 29.0 0.00 0.00 0.00 30 1009.8
20260503200844 16 0 1.6 29.0 0.00 0.00 0.00 33 1009.8
20260503200752 16 0 1.6 29.0 0.00 0.00 0.00 33 1009.8
20260503200651 16 0 1.6 29.0 0.00 0.00 0.00 32 1009.8
20260503200551 16 0 1.6 29.0 0.00 0.00 0.00 31 1009.8
20260503200520 16 360 0.0 29.0 0.00 0.00 0.00 31 1009.6
20260503200518 16 0 1.6 29.0 0.00 0.00 0.00 31 1009.8
20260503200358 16 0 1.6 29.0 0.00 0.00 0.00 31 1009.8
20260503200150 16 219 1.6 29.0 0.00 0.00 0.00 31 1009.8
20260503200050 16 290 1.6 19.3 0.00 0.00 0.00 30 1009.9
20260503200020 16 275 0.0 19.3 0.00 0.00 0.00 30 1009.7
20260503195948 16 307 0.0 19.3 0.00 0.00 0.00 34 1009.9
20260503195844 16 275 1.6 30.6 0.00 0.00 0.00 33 1009.8
20260503195746 16 288 1.6 30.6 0.00 0.00 0.00 32 1009.9
20260503195700 16 304 1.6 30.6 0.00 0.00 0.00 34 1009.9
20260503195655 16 289 1.6 30.6 0.00 0.00 0.00 31 1009.8
20260503195520 16 275 0.0 30.6 0.00 0.00 0.00 34 1009.6
20260503195447 16 246 1.6 30.6 0.00 0.00 0.00 33 1009.8
20260503195344 16 296 1.6 30.6 0.00 0.00 0.00 32 1009.9
20260503195321 16 248 1.6 30.6 0.00 0.00 0.00 32 1009.8
20260503195316 16 313 1.6 30.6 0.00 0.00 0.00 31 1009.8
20260503195105 16 360 0.0 30.6 0.00 0.00 0.00 32 1009.7
20260503195053 16 0 1.6 30.6 0.00 0.00 0.00 32 1009.9
20260503194844 16 283 1.6 22.5 0.00 0.00 0.00 32 1009.9
20260503194742 16 226 1.6 22.5 0.00 0.00 0.00 32 1009.8
20260503194641 16 244 0.0 22.5 0.00 0.00 0.00 33 1009.8
20260503194541 16 245 0.0 12.9 0.00 0.00 0.00 32 1009.8
20260503194520 16 264 0.0 12.9 0.00 0.00 0.00 31 1009.7
20260503194439 16 272 0.0 12.9 0.00 0.00 0.00 33 1009.9
20260503194344 16 232 0.0 12.9 0.00 0.00 0.00 31 1009.9
20260503194338 16 250 0.0 12.9 0.00 0.00 0.00 31 1009.9
20260503194239 16 268 0.0 12.9 0.00 0.00 0.00 33 1009.9
20260503194138 16 296 1.6 12.9 0.00 0.00 0.00 32 1010.0
20260503194038 16 0 1.6 12.9 0.00 0.00 0.00 33 1010.0
20260503194020 16 180 3.2 12.9 0.00 0.00 0.00 34 1009.8
20260503193937 16 254 1.6 12.9 0.00 0.00 0.00 33 1010.0
20260503193837 16 0 1.6 19.3 0.00 0.00 0.00 31 1010.0
20260503193736 16 0 1.6 19.3 0.00 0.00 0.00 31 1009.9
20260503193706 16 263 3.2 20.9 0.00 0.00 0.00 31 1010.1
20260503193635 16 0 1.6 19.3 0.00 0.00 0.00 31 1010.0
20260503193603 16 210 3.2 22.5 0.00 0.00 0.00 31 1010.1
20260503193557 16 0 1.6 19.3 0.00 0.00 0.00 31 1010.1
20260503193548 16 298 3.2 20.9 0.00 0.00 0.00 32 1010.1
20260503193520 16 360 0.0 19.3 0.00 0.00 0.00 32 1009.9
20260503193233 16 331 3.2 22.5 0.00 0.00 0.00 32 1010.1
20260503193133 16 0 1.6 22.5 0.00 0.00 0.00 34 1010.2
20260503193105 16 273 3.2 25.7 0.00 0.00 0.00 32 1010.1
20260503193100 16 221 3.2 25.7 0.00 0.00 0.00 30 1010.1
20260503193055 16 182 3.2 22.5 0.00 0.00 0.00 32 1010.1
20260503193020 16 158 0.0 25.7 0.00 0.00 0.00 32 1009.9
20260503192938 16 322 3.2 25.7 0.00 0.00 0.00 30 1010.1
20260503192731 16 260 3.2 25.7 0.00 0.00 0.00 31 1010.0
20260503192631 16 217 3.2 25.7 0.00 0.00 0.00 31 1010.1
20260503192528 16 275 3.2 25.7 0.00 0.00 0.00 32 1010.1
20260503192521 16 240 1.6 27.4 0.00 0.00 0.00 32 1009.9
20260503192429 16 251 3.2 27.4 0.00 0.00 0.00 34 1010.1
20260503192340 16 262 3.2 27.4 0.00 0.00 0.00 34 1010.0
20260503192328 16 245 3.2 27.4 0.00 0.00 0.00 34 1010.0
20260503192241 16 263 3.2 27.4 0.00 0.00 0.00 31 1010.0
20260503192236 16 257 3.2 27.4 0.00 0.00 0.00 32 1010.0
20260503192101 16 270 1.6 27.4 0.00 0.00 0.00 32 1010.0
20260503192026 16 248 3.2 27.4 0.00 0.00 0.00 31 1010.0
20260503192021 16 212 25.7 27.4 0.00 0.00 0.00 31 1009.9
20260503191947 16 296 1.6 27.4 0.00 0.00 0.00 30 1010.1
20260503191825 16 263 1.6 27.4 0.00 0.00 0.00 32 1010.0
20260503191751 16 207 1.6 27.4 0.00 0.00 0.00 33 1010.1
20260503191747 16 283 1.6 27.4 0.00 0.00 0.00 32 1010.2
20260503191741 16 261 1.6 27.4 0.00 0.00 0.00 34 1010.1
20260503191521 16 360 1.6 19.3 0.00 0.00 0.00 32 1009.9
20260503191442 16 271 1.6 19.3 0.00 0.00 0.00 32 1010.2
20260503191437 16 226 1.6 19.3 0.00 0.00 0.00 32 1010.1
20260503191429 16 0 1.6 19.3 0.00 0.00 0.00 32 1010.2
20260503191222 16 0 1.6 19.3 0.00 0.00 0.00 33 1010.2
20260503191121 16 0 1.6 19.3 0.00 0.00 0.00 34 1010.1
20260503191020 16 0 0.0 16.1 0.00 0.00 0.00 32 1010.2
20260503190920 16 0 0.0 16.1 0.00 0.00 0.00 32 1010.3
20260503190839 15 0 0.0 16.1 0.00 0.00 0.00 33 1010.2
20260503190819 15 0 0.0 12.9 0.00 0.00 0.00 33 1010.2
20260503190733 15 0 1.6 20.9 0.00 0.00 0.00 35 1010.3
20260503190727 15 0 1.6 20.9 0.00 0.00 0.00 35 1010.2
20260503190521 15 360 0.0 20.9 0.00 0.00 0.00 35 1010.0
20260503190518 15 0 1.6 20.9 0.00 0.00 0.00 35 1010.3
20260503190437 15 0 1.6 20.9 0.00 0.00 0.00 34 1010.2
20260503190431 15 0 1.6 20.9 0.00 0.00 0.00 35 1010.2
20260503190423 15 0 1.6 20.9 0.00 0.00 0.00 34 1010.2
20260503190216 15 0 1.6 27.4 0.00 0.00 0.00 33 1010.2
20260503190116 15 0 1.6 27.4 0.00 0.00 0.00 34 1010.2
20260503190020 15 360 0.0 27.4 0.00 0.00 0.00 32 1010.1
20260503190015 15 0 1.6 27.4 0.00 0.00 0.00 32 1010.3
20260503185930 15 0 1.6 27.4 0.00 0.00 0.00 31 1010.3
20260503185922 15 0 1.6 27.4 0.00 0.00 0.00 31 1010.4
20260503185729 15 0 1.6 27.4 0.00 0.00 0.00 32 1010.3
20260503185724 15 0 1.6 27.4 0.00 0.00 0.00 32 1010.4
20260503185528 15 0 1.6 27.4 0.00 0.00 0.00 32 1010.5
20260503185523 15 0 1.6 27.4 0.00 0.00 0.00 31 1010.4
20260503185520 15 360 0.0 27.4 0.00 0.00 0.00 31 1010.2
20260503185336 15 0 1.6 27.4 0.00 0.00 0.00 32 1010.5
20260503185313 15 0 1.6 27.4 0.00 0.00 0.00 33 1010.3
20260503185213 15 0 1.6 20.9 0.00 0.00 0.00 32 1010.4
20260503185112 15 0 3.2 20.9 0.00 0.00 0.00 31 1010.3
20260503185021 15 360 1.6 24.1 0.00 0.00 0.00 32 1010.2
20260503185011 15 0 1.6 29.0 0.00 0.00 0.00 32 1010.4
20260503184911 15 0 1.6 29.0 0.00 0.00 0.00 35 1010.5
20260503184834 15 0 1.6 29.0 0.00 0.00 0.00 35 1010.5
20260503184809 15 0 1.6 29.0 0.00 0.00 0.00 36 1010.4
20260503184710 15 0 1.6 29.0 0.00 0.00 0.00 33 1010.4
20260503184607 15 0 3.2 29.0 0.00 0.00 0.00 33 1010.3
20260503184554 15 0 3.2 29.0 0.00 0.00 0.00 32 1010.4
20260503184520 15 360 0.0 24.1 0.00 0.00 0.00 31 1010.2
20260503184507 15 0 3.2 29.0 0.00 0.00 0.00 31 1010.3
20260503184441 15 0 3.2 29.0 0.00 0.00 0.00 32 1010.4
20260503184306 15 0 1.6 29.0 0.00 0.00 0.00 32 1010.3
20260503184208 15 0 1.6 29.0 0.00 0.00 0.00 33 1010.4
20260503184108 15 0 1.6 29.0 0.00 0.00 0.00 32 1010.4
20260503184034 15 0 1.6 24.1 0.00 0.00 0.00 32 1010.4
20260503184022 15 360 0.0 22.5 0.00 0.00 0.00 32 1010.3
20260503183921 15 0 1.6 24.1 0.00 0.00 0.00 31 1010.3
20260503183911 15 0 1.6 24.1 0.00 0.00 0.00 33 1010.3
20260503183732 15 0 3.2 24.1 0.00 0.00 0.00 30 1010.4
20260503183727 15 0 3.2 22.5 0.00 0.00 0.00 33 1010.3
20260503183723 15 0 3.2 22.5 0.00 0.00 0.00 34 1010.3
20260503183719 15 0 3.2 22.5 0.00 0.00 0.00 32 1010.3
20260503183715 15 0 3.2 24.1 0.00 0.00 0.00 32 1010.4
20260503183556 15 0 3.2 22.5 0.00 0.00 0.00 32 1010.5
20260503183520 15 360 3.2 22.5 0.00 0.00 0.00 32 1010.3
20260503183333 15 0 3.2 22.5 0.00 0.00 0.00 32 1010.4
20260503183110 15 0 3.2 22.5 0.00 0.00 0.00 32 1010.4
20260503183020 15 360 0.0 22.5 0.00 0.00 0.00 33 1010.3
20260503182901 15 0 3.2 22.5 0.00 0.00 0.00 32 1010.5
20260503182829 15 0 3.2 22.5 0.00 0.00 0.00 32 1010.5
20260503182800 15 0 3.2 22.5 0.00 0.00 0.00 32 1010.6
20260503182658 15 0 3.2 22.5 0.00 0.00 0.00 32 1010.5
20260503182558 15 0 1.6 22.5 0.00 0.00 0.00 33 1010.5
20260503182521 15 360 1.6 20.9 0.00 0.00 0.00 33 1010.4
20260503182458 15 0 1.6 20.9 0.00 0.00 0.00 33 1010.5
20260503182357 15 0 1.6 20.9 0.00 0.00 0.00 32 1010.4
20260503182328 15 0 1.6 20.9 0.00 0.00 0.00 34 1010.4
20260503182257 15 0 1.6 20.9 0.00 0.00 0.00 34 1010.5
20260503182156 15 0 1.6 20.9 0.00 0.00 0.00 33 1010.5
20260503182125 15 0 3.2 20.9 0.00 0.00 0.00 33 1010.6
20260503182056 15 0 1.6 20.9 0.00 0.00 0.00 33 1010.5
20260503182023 15 0 1.6 20.9 0.00 0.00 0.00 33 1010.7
20260503182020 15 360 0.0 20.9 0.00 0.00 0.00 33 1010.5
20260503182018 15 0 3.2 20.9 0.00 0.00 0.00 33 1010.6
20260503182009 15 0 3.2 20.9 0.00 0.00 0.00 33 1010.7
20260503181654 15 0 1.6 20.9 0.00 0.00 0.00 33 1010.6
20260503181554 15 0 3.2 20.9 0.00 0.00 0.00 34 1010.6
20260503181520 15 360 0.0 20.9 0.00 0.00 0.00 34 1010.4
20260503181452 15 0 1.6 20.9 0.00 0.00 0.00 35 1010.5
20260503181325 15 0 3.2 20.9 0.00 0.00 0.00 35 1010.5
20260503181251 15 0 3.2 20.9 0.00 0.00 0.00 34 1010.5
20260503181151 15 0 3.2 20.9 0.00 0.00 0.00 34 1010.4
20260503181050 15 0 3.2 20.9 0.00 0.00 0.00 34 1010.4
20260503181032 14 0 3.2 17.7 0.00 0.00 0.00 36 1010.4
20260503181026 14 0 3.2 20.9 0.00 0.00 0.00 35 1010.5
20260503181021 15 360 0.0 20.9 0.00 0.00 0.00 34 1010.4
20260503180909 14 0 3.2 17.7 0.00 0.00 0.00 36 1010.4
20260503180758 14 0 3.2 17.7 0.00 0.00 0.00 35 1010.4
20260503180630 14 0 1.6 16.1 0.00 0.00 0.00 33 1010.4
20260503180624 14 0 1.6 17.7 0.00 0.00 0.00 35 1010.4
20260503180520 14 360 3.2 17.7 0.00 0.00 0.00 35 1010.2
20260503180511 14 0 3.2 17.7 0.00 0.00 0.00 32 1010.3
20260503180502 14 0 1.6 16.1 0.00 0.00 0.00 33 1010.4
20260503180147 14 0 1.6 16.1 0.00 0.00 0.00 32 1010.4
20260503180046 14 0 1.6 16.1 0.00 0.00 0.00 33 1010.4
20260503180020 14 360 0.0 16.1 0.00 0.00 0.00 34 1010.4
20260503175945 14 0 1.6 16.1 0.00 0.00 0.00 34 1010.5
20260503175825 14 0 1.6 16.1 0.00 0.00 0.00 32 1010.4
20260503175741 14 0 1.6 16.1 0.00 0.00 0.00 33 1010.4
20260503175641 14 0 1.6 16.1 0.00 0.00 0.00 33 1010.4
20260503175602 14 0 1.6 20.9 0.00 0.00 0.00 34 1010.5
20260503175521 14 360 6.4 20.9 0.00 0.00 0.00 35 1010.4
20260503175448 14 0 1.6 20.9 0.00 0.00 0.00 35 1010.5
20260503175323 14 0 1.6 20.9 0.00 0.00 0.00 36 1010.5
20260503175238 14 0 1.6 20.9 0.00 0.00 0.00 38 1010.5
20260503175138 14 0 1.6 20.9 0.00 0.00 0.00 35 1010.6
20260503175038 14 0 1.6 20.9 0.00 0.00 0.00 35 1010.6
20260503175021 14 360 0.0 20.9 0.00 0.00 0.00 34 1010.6
20260503174937 14 0 1.6 20.9 0.00 0.00 0.00 34 1010.7
20260503174823 14 0 1.6 20.9 0.00 0.00 0.00 33 1010.6
20260503174736 14 0 1.6 20.9 0.00 0.00 0.00 34 1010.5
20260503174636 14 0 1.6 20.9 0.00 0.00 0.00 34 1010.5
20260503174550 14 360 0.0 30.6 0.00 0.00 0.00 33 1010.4
20260503174535 14 0 1.6 30.6 0.00 0.00 0.00 33 1010.5
20260503174435 14 0 1.6 30.6 0.00 0.00 0.00 33 1010.5
20260503174322 14 0 3.2 30.6 0.00 0.00 0.00 32 1010.7
20260503174243 14 0 3.2 30.6 0.00 0.00 0.00 32 1010.6
20260503174239 14 0 3.2 30.6 0.00 0.00 0.00 32 1010.7
20260503174056 14 0 3.2 30.6 0.00 0.00 0.00 32 1010.7
20260503174052 14 0 3.2 30.6 0.00 0.00 0.00 32 1010.6
20260503174047 14 0 3.2 30.6 0.00 0.00 0.00 31 1010.6
20260503174020 14 360 0.0 30.6 0.00 0.00 0.00 31 1010.6
20260503173819 14 0 3.2 30.6 0.00 0.00 0.00 33 1010.6
20260503173741 14 0 3.2 30.6 0.00 0.00 0.00 34 1010.5
20260503173737 14 0 3.2 30.6 0.00 0.00 0.00 32 1010.7
20260503173540 14 0 3.2 25.7 0.00 0.00 0.00 35 1010.5
20260503173536 14 360 0.0 25.7 0.00 0.00 0.00 34 1010.4
20260503173321 14 0 3.2 25.7 0.00 0.00 0.00 34 1010.4
20260503173253 13 0 3.2 25.7 0.00 0.00 0.00 36 1010.5
20260503173247 14 0 3.2 25.7 0.00 0.00 0.00 34 1010.3
20260503173134 14 0 3.2 25.7 0.00 0.00 0.00 36 1010.4
20260503173020 13 360 1.6 25.7 0.00 0.00 0.00 36 1010.3
20260503172935 13 0 3.2 25.7 0.00 0.00 0.00 33 1010.4
20260503172926 13 0 4.8 25.7 0.00 0.00 0.00 34 1010.6
20260503172722 13 0 4.8 35.4 0.00 0.00 0.00 35 1010.6
20260503172635 13 0 4.8 35.4 0.00 0.00 0.00 34 1010.4
20260503172631 13 0 4.8 35.4 0.00 0.00 0.00 36 1010.5
20260503172520 13 360 1.6 35.4 0.00 0.00 0.00 34 1010.5
20260503172421 13 0 4.8 35.4 0.00 0.00 0.00 34 1010.6
20260503172322 13 0 4.8 35.4 0.00 0.00 0.00 35 1010.5
20260503172220 13 0 3.2 35.4 0.00 0.00 0.00 34 1010.6
20260503172119 13 0 3.2 35.4 0.00 0.00 0.00 34 1010.5
20260503172021 13 360 3.2 35.4 0.00 0.00 0.00 35 1010.3
20260503172019 13 0 3.2 35.4 0.00 0.00 0.00 35 1010.5
20260503171918 13 0 3.2 35.4 0.00 0.00 0.00 33 1010.4
20260503171818 13 0 3.2 35.4 0.00 0.00 0.00 35 1010.3
20260503171718 13 0 1.6 24.1 0.00 0.00 0.00 36 1010.5
20260503171617 13 0 1.6 24.1 0.00 0.00 0.00 35 1010.5
20260503171520 13 360 0.0 24.1 0.00 0.00 0.00 32 1010.4
20260503171516 13 0 1.6 24.1 0.00 0.00 0.00 32 1010.5
20260503171443 13 0 1.6 24.1 0.00 0.00 0.00 33 1010.5
20260503171324 13 0 1.6 19.3 0.00 0.00 0.00 35 1010.6
20260503171115 13 0 1.6 19.3 0.00 0.00 0.00 34 1010.7
20260503171035 13 360 1.6 19.3 0.00 0.00 0.00 33 1010.6
20260503171015 13 0 1.6 19.3 0.00 0.00 0.00 33 1010.7
20260503170913 13 0 0.0 14.5 0.00 0.00 0.00 36 1010.8
20260503170813 13 0 0.0 14.5 0.00 0.00 0.00 37 1010.8
20260503170713 13 0 0.0 16.1 0.00 0.00 0.00 35 1010.8
20260503170612 13 0 0.0 16.1 0.00 0.00 0.00 35 1010.8
20260503170521 13 360 0.0 16.1 0.00 0.00 0.00 37 1010.7
20260503170512 13 0 1.6 16.1 0.00 0.00 0.00 37 1010.8
20260503170409 13 0 1.6 16.1 0.00 0.00 0.00 39 1010.8
20260503170318 13 0 1.6 16.1 0.00 0.00 0.00 35 1010.8
20260503170310 13 0 1.6 16.1 0.00 0.00 0.00 35 1010.7
20260503170236 13 0 1.6 16.1 0.00 0.00 0.00 37 1010.7
20260503170232 13 0 1.6 16.1 0.00 0.00 0.00 38 1010.8
20260503170227 13 0 1.6 16.1 0.00 0.00 0.00 36 1010.7
20260503160206 11 0 0.0 4.8 0.00 0.00 0.00 42 1011.1
20260503160201 11 0 0.0 9.7 0.00 0.00 0.00 42 1011.1
20260503151012 11 0 1.6 17.7 0.00 0.00 0.00 44 1010.8
20260503150809 11 0 1.6 17.7 0.00 0.00 0.00 43 1006.5
20260503150803 11 0 1.6 17.7 0.00 0.00 0.00 43 1006.5
20260503150715 11 0 1.6 17.7 0.00 0.00 0.00 42 1006.4
20260503150711 11 0 1.6 17.7 0.00 0.00 0.00 41 1006.4
20260503150521 11 360 0.0 17.7 0.00 0.00 0.00 43 1006.1
20260503150501 11 0 1.6 17.7 0.00 0.00 0.00 43 1006.2
20260503150401 11 0 1.6 17.7 0.00 0.00 0.00 42 1006.2
20260503150308 11 0 1.6 16.1 0.00 0.00 0.00 42 1006.2
20260503150300 11 0 1.6 16.1 0.00 0.00 0.00 42 1006.2
20260503150213 11 0 1.6 16.1 0.00 0.00 0.00 41 1006.4
20260503150209 11 0 1.6 16.1 0.00 0.00 0.00 41 1006.2
20260503140229 10 0 1.6 24.1 0.00 0.00 0.00 48 1006.9
20260503140141 10 0 0.0 14.5 0.00 0.00 0.00 50 1006.9
20260503140137 10 0 1.6 24.1 0.00 0.00 0.00 48 1006.9
20260503131405 9 0 0.0 4.8 0.00 0.00 0.00 54 1007.8
20260503131349 9 0 0.0 3.2 0.00 0.00 0.00 54 1007.8
20260503131218 9 0 0.0 3.2 0.00 0.00 0.00 55 1007.9
20260503131213 9 0 0.0 3.2 0.00 0.00 0.00 53 1007.8
20260503131021 9 360 0.0 3.2 0.00 0.00 0.00 55 1008.0
20260503131016 9 0 0.0 3.2 0.00 0.00 0.00 55 1008.0
20260503131011 9 0 0.0 3.2 0.00 0.00 0.00 55 1008.0
20260503130801 9 0 0.0 3.2 0.00 0.00 0.00 55 1008.1
20260503130742 9 0 0.0 3.2 0.00 0.00 0.00 55 1008.1
20260503130723 9 0 0.0 3.2 0.00 0.00 0.00 54 1008.2
20260503130610 9 0 0.0 3.2 0.00 0.00 0.00 53 1008.2
20260503130521 9 360 0.0 3.2 0.00 0.00 0.00 54 1008.3
20260503130400 9 0 0.0 3.2 0.00 0.00 0.00 55 1008.2
20260503130241 9 0 0.0 3.2 0.00 0.00 0.00 54 1008.3
20260503130200 9 0 0.0 3.2 0.00 0.00 0.00 53 1008.3
20260503130135 9 0 0.0 3.2 0.00 0.00 0.00 53 1008.3
20260503130128 9 0 0.0 3.2 0.00 0.00 0.00 53 1008.4
20260503120124 7 0 0.0 0.0 0.00 0.00 0.00 62 1011.3
20260503110816 6 0 0.0 0.0 0.00 0.00 0.00 64 1010.9
20260503110804 6 0 0.0 0.0 0.00 0.00 0.00 64 1010.9
20260503110557 6 0 0.0 0.0 0.00 0.00 0.00 64 1010.9
20260503110536 6 360 0.0 0.0 0.00 0.00 0.00 64 1011.0
20260503110458 6 0 0.0 0.0 0.00 0.00 0.00 64 1010.9
20260503110442 6 0 0.0 0.0 0.00 0.00 0.00 64 1010.9
20260503110358 6 0 0.0 0.0 0.00 0.00 0.00 64 1010.8
20260503110332 6 0 0.0 0.0 0.00 0.00 0.00 64 1010.9
20260503110156 6 0 0.0 0.0 0.00 0.00 0.00 64 1010.9
20260503110114 6 0 0.0 0.0 0.00 0.00 0.00 64 1010.8
20260503110108 6 0 0.0 0.0 0.00 0.00 0.00 64 1010.8
20260503110106 6 360 0.0 0.0 0.00 0.00 0.00 64 1010.9
20260503100223 6 0 0.0 8.0 0.00 0.00 0.00 65 1010.1
20260503100212 6 0 0.0 8.0 0.00 0.00 0.00 66 1010.1
20260503100123 6 0 0.0 8.0 0.00 0.00 0.00 66 1010.1
20260503090503 3 0 0.0 0.0 0.00 0.00 0.00 79 1009.4
20260503090459 3 0 0.0 0.0 0.00 0.00 0.00 79 1009.4
20260503090309 3 0 0.0 0.0 0.00 0.00 0.00 79 1009.3
20260503090256 3 0 0.0 0.0 0.00 0.00 0.00 79 1009.3
20260503081521 3 232 0.0 3.2 0.00 0.00 0.00 80 1009.1
20260503081423 3 232 0.0 3.2 0.00 0.00 0.00 80 1008.9
20260503081322 3 232 0.0 3.2 0.00 0.00 0.00 80 1008.9
20260503081222 3 232 0.0 3.2 0.00 0.00 0.00 80 1008.9
20260503081153 3 232 0.0 3.2 0.00 0.00 0.00 80 1008.8
20260503081127 3 232 0.0 0.0 0.00 0.00 0.00 79 1008.8
20260503081122 3 232 0.0 3.2 0.00 0.00 0.00 80 1008.8
20260503081116 3 232 0.0 0.0 0.00 0.00 0.00 79 1008.8
20260503081107 3 232 0.0 0.0 0.00 0.00 0.00 79 1008.8
20260503081101 3 232 0.0 0.0 0.00 0.00 0.00 80 1008.8
20260503081020 3 232 0.0 0.0 0.00 0.00 0.00 80 1009.0
20260503080833 3 232 0.0 0.0 0.00 0.00 0.00 79 1008.8
20260503080521 3 232 0.0 0.0 0.00 0.00 0.00 79 1009.0
20260503080518 3 232 0.0 0.0 0.00 0.00 0.00 79 1008.8
20260503080432 3 232 0.0 0.0 0.00 0.00 0.00 79 1008.7
20260503080426 3 232 0.0 0.0 0.00 0.00 0.00 79 1008.8
20260503080217 3 232 0.0 0.0 0.00 0.00 0.00 79 1008.7
20260503080138 3 232 0.0 0.0 0.00 0.00 0.00 79 1008.7
20260503080106 3 232 0.0 0.0 0.00 0.00 0.00 79 1008.9
20260503072909 4 232 0.0 0.0 0.00 0.00 0.00 80 1008.5
20260503072643 4 232 0.0 0.0 0.00 0.00 0.00 80 1008.5
20260503072559 4 232 0.0 0.0 0.00 0.00 0.00 80 1008.5
20260503072521 4 232 0.0 0.0 0.00 0.00 0.00 80 1008.6
20260503072459 4 232 0.0 0.0 0.00 0.00 0.00 81 1008.4
20260503072358 4 232 0.0 0.0 0.00 0.00 0.00 81 1008.4
20260503072257 4 232 0.0 0.0 0.00 0.00 0.00 81 1008.4
20260503072143 4 232 0.0 0.0 0.00 0.00 0.00 81 1008.4
20260503072056 4 232 0.0 0.0 0.00 0.00 0.00 81 1008.5
20260503072021 4 232 0.0 0.0 0.00 0.00 0.00 81 1008.6
20260503071956 4 232 0.0 0.0 0.00 0.00 0.00 81 1008.4
20260503071855 4 232 0.0 0.0 0.00 0.00 0.00 81 1008.5
20260503071755 4 232 0.0 0.0 0.00 0.00 0.00 81 1008.5
20260503071642 4 232 0.0 0.0 0.00 0.00 0.00 81 1008.5
20260503071553 4 232 0.0 0.0 0.00 0.00 0.00 81 1008.5
20260503071551 4 232 0.0 1.6 0.00 0.00 0.00 81 1008.7
20260503071546 4 232 0.0 1.6 0.00 0.00 0.00 81 1008.5
20260503071542 4 232 0.0 1.6 0.00 0.00 0.00 81 1008.5
20260503071536 4 232 0.0 1.6 0.00 0.00 0.00 81 1008.5
20260503071313 4 232 0.0 1.6 0.00 0.00 0.00 81 1008.5
20260503071304 4 232 0.0 1.6 0.00 0.00 0.00 81 1008.5
20260503071024 4 232 0.0 1.6 0.00 0.00 0.00 81 1008.5
20260503071021 4 232 0.0 1.6 0.00 0.00 0.00 81 1008.7
20260503071019 4 232 0.0 1.6 0.00 0.00 0.00 81 1008.5
20260503070906 4 232 0.0 1.6 0.00 0.00 0.00 81 1008.5
20260503070747 4 232 0.0 1.6 0.00 0.00 0.00 81 1008.5
20260503070548 4 231 0.0 1.6 0.00 0.00 0.00 81 1008.5
20260503070521 4 231 0.0 1.6 0.00 0.00 0.00 81 1008.7
20260503070446 4 231 0.0 1.6 0.00 0.00 0.00 81 1008.5
20260503070346 4 231 0.0 1.6 0.00 0.00 0.00 81 1008.5
20260503070245 4 232 0.0 1.6 0.00 0.00 0.00 81 1008.5
20260503070204 4 227 0.0 0.0 0.00 0.00 0.00 81 1008.7
20260503070159 4 231 0.0 1.6 0.00 0.00 0.00 81 1008.6
20260503070152 4 227 0.0 0.0 0.00 0.00 0.00 81 1008.6
20260503060332 5 221 0.0 1.6 0.00 0.00 0.00 81 1008.9
20260503060327 5 221 0.0 1.6 0.00 0.00 0.00 82 1009.0
20260503060136 5 287 0.0 0.0 0.00 0.00 0.00 81 1008.9
20260503060126 5 221 0.0 1.6 0.00 0.00 0.00 81 1008.9
20260503055111 5 211 0.0 0.0 0.00 0.00 0.00 80 1008.9
20260503055021 5 211 0.0 0.0 0.00 0.00 0.00 80 1009.0
20260503055009 5 211 0.0 0.0 0.00 0.00 0.00 80 1008.9
20260503054909 5 211 0.0 0.0 0.00 0.00 0.00 80 1008.9
20260503054809 5 211 0.0 0.0 0.00 0.00 0.00 80 1008.9
20260503054707 5 211 0.0 0.0 0.00 0.00 0.00 79 1008.9
20260503054630 5 211 0.0 0.0 0.00 0.00 0.00 79 1008.9
20260503054521 5 211 0.0 0.0 0.00 0.00 0.00 79 1009.0
20260503054517 5 211 0.0 0.0 0.00 0.00 0.00 79 1008.9
20260503054308 5 211 0.0 0.0 0.00 0.00 0.00 79 1009.0
20260503054208 5 211 0.0 0.0 0.00 0.00 0.00 79 1009.0
20260503054108 5 211 0.0 0.0 0.00 0.00 0.00 79 1009.0
20260503054037 5 211 0.0 0.0 0.00 0.00 0.00 79 1009.1
20260503054007 5 211 0.0 0.0 0.00 0.00 0.00 79 1009.0
20260503053906 5 211 0.0 0.0 0.00 0.00 0.00 79 1009.0
20260503053806 5 211 0.0 0.0 0.00 0.00 0.00 78 1009.0
20260503053705 5 211 0.0 0.0 0.00 0.00 0.00 78 1009.1
20260503053626 5 211 0.0 0.0 0.00 0.00 0.00 78 1009.1
20260503053605 5 211 0.0 0.0 0.00 0.00 0.00 78 1009.0
20260503053521 5 211 0.0 0.0 0.00 0.00 0.00 78 1009.1
20260503053504 5 211 0.0 0.0 0.00 0.00 0.00 78 1009.0
20260503053424 5 211 0.0 0.0 0.00 0.00 0.00 77 1009.1
20260503053404 5 211 0.0 0.0 0.00 0.00 0.00 78 1009.1
20260503053331 5 211 0.0 0.0 0.00 0.00 0.00 77 1009.1
20260503053326 5 211 0.0 0.0 0.00 0.00 0.00 78 1009.0
20260503053317 5 211 0.0 0.0 0.00 0.00 0.00 77 1009.1
20260503053021 6 211 0.0 0.0 0.00 0.00 0.00 77 1009.2
20260503053002 6 211 0.0 0.0 0.00 0.00 0.00 77 1009.1
20260503052900 6 211 0.0 0.0 0.00 0.00 0.00 77 1009.1
20260503052800 6 211 0.0 0.0 0.00 0.00 0.00 77 1009.1
20260503052700 6 211 0.0 0.0 0.00 0.00 0.00 77 1009.1
20260503052624 6 211 0.0 0.0 0.00 0.00 0.00 77 1009.1
20260503052558 6 211 0.0 0.0 0.00 0.00 0.00 77 1009.2
20260503052521 6 211 0.0 0.0 0.00 0.00 0.00 77 1009.3
20260503052458 6 211 0.0 0.0 0.00 0.00 0.00 77 1009.2
20260503052357 6 211 0.0 0.0 0.00 0.00 0.00 77 1009.2
20260503052257 6 211 0.0 0.0 0.00 0.00 0.00 77 1009.2
20260503052157 6 211 0.0 0.0 0.00 0.00 0.00 77 1009.2
20260503052125 6 211 0.0 0.0 0.00 0.00 0.00 77 1009.2
20260503052056 6 211 0.0 0.0 0.00 0.00 0.00 77 1009.2
20260503052022 6 211 0.0 0.0 0.00 0.00 0.00 76 1009.2
20260503052017 6 211 0.0 0.0 0.00 0.00 0.00 76 1009.2
20260503052013 6 211 0.0 0.0 0.00 0.00 0.00 77 1009.2
20260503051655 6 211 0.0 0.0 0.00 0.00 0.00 75 1009.2
20260503051624 6 211 0.0 0.0 0.00 0.00 0.00 75 1009.2
20260503051607 6 211 0.0 0.0 0.00 0.00 0.00 75 1009.3
20260503051603 6 211 0.0 0.0 0.00 0.00 0.00 75 1009.2
20260503051520 6 211 0.0 0.0 0.00 0.00 0.00 75 1009.4
20260503051352 6 211 0.0 0.0 0.00 0.00 0.00 75 1009.3
20260503051252 6 211 0.0 0.0 0.00 0.00 0.00 75 1009.2
20260503051218 6 211 0.0 0.0 0.00 0.00 0.00 75 1009.3
20260503051210 6 211 0.0 0.0 0.00 0.00 0.00 74 1009.3
20260503051100 6 211 0.0 0.0 0.00 0.00 0.00 74 1009.3
20260503051021 6 211 0.0 0.0 0.00 0.00 0.00 74 1009.4
20260503050854 6 211 0.0 0.0 0.00 0.00 0.00 74 1009.3
20260503050850 6 211 0.0 0.0 0.00 0.00 0.00 74 1009.3
20260503050842 6 211 0.0 0.0 0.00 0.00 0.00 74 1009.3
20260503050838 6 211 0.0 0.0 0.00 0.00 0.00 73 1009.3
20260503050834 6 211 0.0 0.0 0.00 0.00 0.00 73 1009.3
20260503050829 6 211 0.0 0.0 0.00 0.00 0.00 74 1009.3
20260503050711 6 211 0.0 0.0 0.00 0.00 0.00 74 1009.3
20260503050521 6 211 0.0 0.0 0.00 0.00 0.00 74 1009.4
20260503050246 6 211 0.0 0.0 0.00 0.00 0.00 73 1009.3
20260503050118 6 211 0.0 0.0 0.00 0.00 0.00 73 1009.3
20260503050045 6 211 0.0 0.0 0.00 0.00 0.00 73 1009.3
20260503050021 6 211 0.0 0.0 0.00 0.00 0.00 73 1009.4
20260503045944 6 211 0.0 0.0 0.00 0.00 0.00 73 1009.3
20260503045849 6 211 0.0 0.0 0.00 0.00 0.00 71 1009.4
20260503045845 6 211 0.0 0.0 0.00 0.00 0.00 73 1009.4
20260503045836 6 211 0.0 0.0 0.00 0.00 0.00 72 1009.3
20260503045541 6 211 0.0 0.0 0.00 0.00 0.00 71 1009.4
20260503045521 6 211 0.0 0.0 0.00 0.00 0.00 71 1009.5
20260503045441 6 211 0.0 0.0 0.00 0.00 0.00 71 1009.4
20260503045352 6 211 0.0 0.0 0.00 0.00 0.00 70 1009.4
20260503045347 6 211 0.0 0.0 0.00 0.00 0.00 71 1009.4
20260503045155 7 211 0.0 0.0 0.00 0.00 0.00 68 1009.4
20260503045143 7 211 0.0 0.0 0.00 0.00 0.00 68 1009.4
20260503045022 7 211 0.0 0.0 0.00 0.00 0.00 68 1009.5
20260503044941 7 211 0.0 0.0 0.00 0.00 0.00 69 1009.4
20260503044849 7 211 0.0 0.0 0.00 0.00 0.00 68 1009.4
20260503044845 7 211 0.0 0.0 0.00 0.00 0.00 68 1009.4
20260503044653 7 211 0.0 0.0 0.00 0.00 0.00 67 1009.5
20260503044641 7 211 0.0 0.0 0.00 0.00 0.00 68 1009.5
20260503044551 7 211 0.0 0.0 0.00 0.00 0.00 67 1009.6
20260503044433 7 211 0.0 0.0 0.00 0.00 0.00 67 1009.5
20260503044333 7 211 0.0 0.0 0.00 0.00 0.00 66 1009.5
20260503044231 7 211 0.0 0.0 0.00 0.00 0.00 66 1009.5
20260503044113 7 211 0.0 0.0 0.00 0.00 0.00 65 1009.5
20260503044031 7 211 0.0 0.0 0.00 0.00 0.00 65 1009.5
20260503044021 7 211 0.0 0.0 0.00 0.00 0.00 65 1009.6
20260503043930 7 211 0.0 0.0 0.00 0.00 0.00 65 1009.5
20260503043839 7 211 0.0 0.0 0.00 0.00 0.00 65 1009.5
20260503043830 7 211 0.0 0.0 0.00 0.00 0.00 65 1009.5
20260503043732 7 211 0.0 0.0 0.00 0.00 0.00 65 1009.5
20260503043723 7 211 0.0 0.0 0.00 0.00 0.00 65 1009.5
20260503043529 7 211 0.0 0.0 0.00 0.00 0.00 65 1009.5
20260503043521 7 211 0.0 0.0 0.00 0.00 0.00 65 1009.6
20260503043428 7 211 0.0 0.0 0.00 0.00 0.00 65 1009.5
20260503043327 7 211 0.0 0.0 0.00 0.00 0.00 65 1009.5
20260503043227 7 211 0.0 0.0 0.00 0.00 0.00 65 1009.5
20260503043114 7 211 0.0 0.0 0.00 0.00 0.00 65 1009.5
20260503043026 7 211 0.0 0.0 0.00 0.00 0.00 64 1009.5
20260503043021 7 211 0.0 0.0 0.00 0.00 0.00 64 1009.7
20260503042924 7 211 0.0 0.0 0.00 0.00 0.00 64 1009.6
20260503042827 7 211 0.0 0.0 0.00 0.00 0.00 65 1009.6
20260503042818 7 211 0.0 0.0 0.00 0.00 0.00 64 1009.5
20260503042814 7 211 0.0 0.0 0.00 0.00 0.00 64 1009.5
20260503042809 7 211 0.0 0.0 0.00 0.00 0.00 64 1009.6
20260503042652 7 211 0.0 0.0 0.00 0.00 0.00 64 1009.5
20260503042541 7 211 0.0 0.0 0.00 0.00 0.00 64 1009.5
20260503042521 7 211 0.0 0.0 0.00 0.00 0.00 64 1009.6
20260503042221 7 211 0.0 0.0 0.00 0.00 0.00 64 1009.6
20260503042113 7 211 0.0 0.0 0.00 0.00 0.00 65 1009.6
20260503042021 7 211 0.0 0.0 0.00 0.00 0.00 65 1009.7
20260503041920 7 211 0.0 0.0 0.00 0.00 0.00 65 1009.6
20260503041842 7 211 0.0 0.0 0.00 0.00 0.00 63 1009.6
20260503041820 7 211 0.0 0.0 0.00 0.00 0.00 65 1009.6
20260503041729 7 211 0.0 0.0 0.00 0.00 0.00 65 1009.6
20260503041720 7 211 0.0 0.0 0.00 0.00 0.00 63 1009.6
20260503041521 7 211 0.0 0.0 0.00 0.00 0.00 63 1009.7
20260503041518 7 211 0.0 0.0 0.00 0.00 0.00 63 1009.6
20260503041418 7 211 0.0 0.0 0.00 0.00 0.00 63 1009.6
20260503041318 7 211 0.0 0.0 0.00 0.00 0.00 63 1009.6
20260503041217 7 211 0.0 0.0 0.00 0.00 0.00 63 1009.6
20260503041136 7 211 0.0 0.0 0.00 0.00 0.00 64 1009.6
20260503041124 7 211 0.0 0.0 0.00 0.00 0.00 63 1009.6
20260503041021 7 211 0.0 0.0 0.00 0.00 0.00 64 1009.7
20260503040931 7 211 0.0 0.0 0.00 0.00 0.00 64 1009.6
20260503040927 7 211 0.0 0.0 0.00 0.00 0.00 64 1009.6
20260503040717 7 211 0.0 0.0 0.00 0.00 0.00 64 1009.6
20260503040611 7 211 0.0 0.0 0.00 0.00 0.00 65 1009.6
20260503040521 7 211 0.0 0.0 0.00 0.00 0.00 65 1009.7
20260503040515 7 211 0.0 0.0 0.00 0.00 0.00 65 1009.6
20260503040415 7 211 0.0 0.0 0.00 0.00 0.00 65 1009.6
20260503040314 7 211 0.0 0.0 0.00 0.00 0.00 64 1009.6
20260503040214 7 211 0.0 0.0 0.00 0.00 0.00 63 1009.7
20260503040110 7 211 0.0 0.0 0.00 0.00 0.00 63 1009.7
20260503040021 7 211 0.0 0.0 0.00 0.00 0.00 63 1009.8
20260503040014 7 211 0.0 0.0 0.00 0.00 0.00 63 1009.7
20260503035911 7 211 0.0 0.0 0.00 0.00 0.00 63 1009.7
20260503035824 7 211 0.0 0.0 0.00 0.00 0.00 64 1009.7
20260503035819 7 211 0.0 0.0 0.00 0.00 0.00 64 1009.8
20260503035610 7 211 0.0 0.0 0.00 0.00 0.00 65 1009.7
20260503035521 7 211 0.0 0.0 0.00 0.00 0.00 64 1009.9
20260503035510 7 211 0.0 0.0 0.00 0.00 0.00 64 1009.8
20260503035422 7 211 0.0 0.0 0.00 0.00 0.00 65 1009.7
20260503035418 7 211 0.0 0.0 0.00 0.00 0.00 64 1009.7
20260503035207 7 211 0.0 0.0 0.00 0.00 0.00 65 1009.7
20260503035108 7 211 0.0 0.0 0.00 0.00 0.00 64 1009.7
20260503035021 7 211 0.0 0.0 0.00 0.00 0.00 64 1009.8
20260503035019 7 211 0.0 0.0 0.00 0.00 0.00 64 1009.7
20260503035015 7 211 0.0 0.0 0.00 0.00 0.00 64 1009.7
20260503034806 7 211 0.0 0.0 0.00 0.00 0.00 64 1009.7
20260503034705 7 211 0.0 0.0 0.00 0.00 0.00 65 1009.7
20260503034606 7 211 0.0 0.0 0.00 0.00 0.00 65 1009.7
20260503034521 7 211 0.0 0.0 0.00 0.00 0.00 64 1009.8
20260503034517 7 211 0.0 0.0 0.00 0.00 0.00 63 1009.7
20260503034513 7 211 0.0 0.0 0.00 0.00 0.00 64 1009.7
20260503034303 7 211 0.0 0.0 0.00 0.00 0.00 63 1009.8
20260503034202 7 211 0.0 0.0 0.00 0.00 0.00 63 1009.7
20260503034120 7 211 0.0 0.0 0.00 0.00 0.00 62 1009.7
20260503034116 7 211 0.0 0.0 0.00 0.00 0.00 64 1009.7
20260503034110 7 211 0.0 0.0 0.00 0.00 0.00 64 1009.7
20260503034021 7 211 0.0 0.0 0.00 0.00 0.00 62 1009.8
20260503033901 7 211 0.0 0.0 0.00 0.00 0.00 61 1009.7
20260503033801 7 211 0.0 0.0 0.00 0.00 0.00 61 1009.6
20260503033659 7 211 0.0 0.0 0.00 0.00 0.00 61 1009.6
20260503033617 7 211 0.0 0.0 0.00 0.00 0.00 62 1009.6
20260503033613 7 211 0.0 0.0 0.00 0.00 0.00 61 1009.6
20260503033607 7 211 0.0 0.0 0.00 0.00 0.00 61 1009.6
20260503033521 7 211 0.0 0.0 0.00 0.00 0.00 62 1009.7
20260503033358 7 211 0.0 0.0 0.00 0.00 0.00 61 1009.6
20260503033310 7 211 0.0 0.0 0.00 0.00 0.00 60 1009.6
20260503033306 7 211 0.0 0.0 0.00 0.00 0.00 61 1009.6
20260503033108 7 211 0.0 0.0 0.00 0.00 0.00 61 1009.6
20260503033057 7 211 0.0 0.0 0.00 0.00 0.00 61 1009.6
20260503033036 8 211 0.0 0.0 0.00 0.00 0.00 61 1009.7
20260503032956 8 211 0.0 0.0 0.00 0.00 0.00 61 1009.7
20260503032908 8 211 0.0 0.0 0.00 0.00 0.00 60 1009.7
20260503032904 8 211 0.0 0.0 0.00 0.00 0.00 61 1009.7
20260503032654 8 211 0.0 0.0 0.00 0.00 0.00 60 1009.7
20260503032626 8 236 0.0 0.0 0.00 0.00 0.00 60 1009.7
20260503032622 8 236 0.0 0.0 0.00 0.00 0.00 60 1009.7
20260503032616 8 211 0.0 0.0 0.00 0.00 0.00 60 1009.7
20260503032611 8 211 0.0 0.0 0.00 0.00 0.00 60 1009.7
20260503032521 8 234 0.0 0.0 0.00 0.00 0.00 60 1009.7
20260503032252 8 236 0.0 0.0 0.00 0.00 0.00 60 1009.7
20260503032152 8 236 0.0 0.0 0.00 0.00 0.00 59 1009.6
20260503032105 8 244 0.0 0.0 0.00 0.00 0.00 59 1009.7
20260503032051 8 244 0.0 0.0 0.00 0.00 0.00 59 1009.7
20260503032021 8 244 0.0 0.0 0.00 0.00 0.00 60 1009.7
20260503032004 8 244 0.0 0.0 0.00 0.00 0.00 60 1009.7
20260503032000 8 244 0.0 0.0 0.00 0.00 0.00 60 1009.7
20260503031803 8 244 0.0 0.0 0.00 0.00 0.00 61 1009.7
20260503031759 8 244 0.0 0.0 0.00 0.00 0.00 60 1009.7
20260503031603 8 244 0.0 0.0 0.00 0.00 0.00 60 1009.7
20260503031549 8 244 0.0 0.0 0.00 0.00 0.00 60 1009.7
20260503031521 8 244 0.0 0.0 0.00 0.00 0.00 59 1009.7
20260503031449 8 244 0.0 0.0 0.00 0.00 0.00 59 1009.7
20260503031348 8 244 0.0 0.0 0.00 0.00 0.00 59 1009.7
20260503031248 8 244 0.0 0.0 0.00 0.00 0.00 59 1009.7
20260503031232 8 244 0.0 0.0 0.00 0.00 0.00 58 1009.6
20260503031228 8 244 0.0 0.0 0.00 0.00 0.00 58 1009.7
20260503031223 8 244 0.0 0.0 0.00 0.00 0.00 59 1009.7
20260503031209 8 244 0.0 0.0 0.00 0.00 0.00 58 1009.6
20260503031021 8 244 0.0 0.0 0.00 0.00 0.00 58 1009.7
20260503030745 8 244 0.0 0.0 0.00 0.00 0.00 59 1009.7
20260503030643 8 244 0.0 0.0 0.00 0.00 0.00 58 1009.7
20260503030603 8 244 0.0 0.0 0.00 0.00 0.00 58 1009.7
20260503030543 8 244 0.0 0.0 0.00 0.00 0.00 58 1009.7
20260503030536 8 244 0.0 0.0 0.00 0.00 0.00 57 1009.6
20260503030442 8 244 0.0 0.0 0.00 0.00 0.00 57 1009.6
20260503030342 8 244 0.0 0.0 0.00 0.00 0.00 57 1009.6
20260503030251 8 244 0.0 0.0 0.00 0.00 0.00 57 1009.7
20260503030246 8 244 0.0 0.0 0.00 0.00 0.00 57 1009.6
20260503030237 8 244 0.0 0.0 0.00 0.00 0.00 57 1009.6
20260503030228 8 244 0.0 0.0 0.00 0.00 0.00 56 1009.7
20260503030021 8 244 0.0 0.0 0.00 0.00 0.00 57 1009.6
20260503030011 8 244 0.0 0.0 0.00 0.00 0.00 57 1009.7
20260503030005 8 244 0.0 0.0 0.00 0.00 0.00 57 1009.6
20260503025601 8 244 0.0 0.0 0.00 0.00 0.00 57 1009.6
20260503025537 8 244 0.0 0.0 0.00 0.00 0.00 57 1009.6
20260503025521 8 244 0.0 0.0 0.00 0.00 0.00 57 1009.6
20260503025449 8 244 0.0 0.0 0.00 0.00 0.00 57 1009.6
20260503025445 8 244 0.0 0.0 0.00 0.00 0.00 57 1009.6
20260503025236 8 244 0.0 0.0 0.00 0.00 0.00 58 1009.6
20260503025135 8 244 0.0 0.0 0.00 0.00 0.00 57 1009.6
20260503025035 8 244 0.0 0.0 0.00 0.00 0.00 58 1009.6
20260503025021 8 244 0.0 0.0 0.00 0.00 0.00 58 1009.6
20260503024933 8 244 0.0 0.0 0.00 0.00 0.00 57 1009.6
20260503024846 8 244 0.0 0.0 0.00 0.00 0.00 57 1009.6
20260503024842 8 244 0.0 0.0 0.00 0.00 0.00 57 1009.6
20260503024632 8 244 0.0 0.0 0.00 0.00 0.00 56 1009.7
20260503024532 8 244 0.0 0.0 0.00 0.00 0.00 56 1009.7
20260503024521 8 244 0.0 0.0 0.00 0.00 0.00 56 1009.6
20260503024431 8 244 0.0 0.0 0.00 0.00 0.00 56 1009.6
20260503024330 8 244 0.0 0.0 0.00 0.00 0.00 56 1009.7
20260503024230 8 244 0.0 0.0 0.00 0.00 0.00 56 1009.6
20260503024143 8 244 0.0 0.0 0.00 0.00 0.00 56 1009.6
20260503024135 8 244 0.0 0.0 0.00 0.00 0.00 56 1009.6
20260503024021 8 244 0.0 0.0 0.00 0.00 0.00 56 1009.6
20260503023941 8 236 0.0 0.0 0.00 0.00 0.00 56 1009.7
20260503023937 8 236 0.0 0.0 0.00 0.00 0.00 56 1009.6
20260503023728 8 236 0.0 0.0 0.00 0.00 0.00 56 1009.6
20260503023627 8 236 0.0 0.0 0.00 0.00 0.00 56 1009.6
20260503023600 8 236 0.0 0.0 0.00 0.00 0.00 56 1009.7
20260503023527 8 236 0.0 0.0 0.00 0.00 0.00 55 1009.7
20260503023521 8 236 0.0 0.0 0.00 0.00 0.00 55 1009.7
20260503023426 8 236 0.0 0.0 0.00 0.00 0.00 55 1009.7
20260503023325 9 236 0.0 0.0 0.00 0.00 0.00 55 1009.7
20260503023225 9 236 0.0 0.0 0.00 0.00 0.00 55 1009.7
20260503023124 9 236 0.0 0.0 0.00 0.00 0.00 55 1009.7
20260503023059 9 236 0.0 0.0 0.00 0.00 0.00 55 1009.7
20260503023024 9 236 0.0 0.0 0.00 0.00 0.00 55 1009.7
20260503023021 9 236 0.0 0.0 0.00 0.00 0.00 55 1009.7
20260503022922 9 236 0.0 0.0 0.00 0.00 0.00 54 1009.7
20260503022822 9 236 0.0 0.0 0.00 0.00 0.00 54 1009.7
20260503022735 9 236 0.0 0.0 0.00 0.00 0.00 54 1009.7
20260503022730 9 236 0.0 0.0 0.00 0.00 0.00 54 1009.7
20260503022558 9 236 0.0 0.0 0.00 0.00 0.00 54 1009.7
20260503022534 9 234 0.0 0.0 0.00 0.00 0.00 54 1009.7
20260503022529 9 234 0.0 0.0 0.00 0.00 0.00 54 1009.7
20260503022521 9 234 0.0 0.0 0.00 0.00 0.00 55 1009.7
20260503022320 9 234 0.0 0.0 0.00 0.00 0.00 54 1009.7
20260503022219 9 234 0.0 0.0 0.00 0.00 0.00 54 1009.7
20260503022118 9 234 0.0 0.0 0.00 0.00 0.00 53 1009.7
20260503022057 9 234 0.0 0.0 0.00 0.00 0.00 53 1009.6
20260503022021 9 243 0.0 0.0 0.00 0.00 0.00 54 1009.6
20260503022017 9 243 0.0 0.0 0.00 0.00 0.00 54 1009.6
20260503021917 9 243 0.0 0.0 0.00 0.00 0.00 53 1009.6
20260503021830 9 242 0.0 0.0 0.00 0.00 0.00 53 1009.6
20260503021825 9 243 0.0 0.0 0.00 0.00 0.00 53 1009.6
20260503021616 9 258 0.0 0.0 0.00 0.00 0.00 53 1009.7
20260503021556 9 258 0.0 0.0 0.00 0.00 0.00 53 1009.7
20260503021522 9 258 0.0 0.0 0.00 0.00 0.00 53 1009.7
20260503021515 9 258 0.0 0.0 0.00 0.00 0.00 53 1009.7
20260503021415 9 257 0.0 0.0 0.00 0.00 0.00 53 1009.7
20260503021323 9 244 0.0 0.0 0.00 0.00 0.00 53 1009.7
20260503021315 9 257 0.0 0.0 0.00 0.00 0.00 52 1009.8
20260503021213 9 268 0.0 0.0 0.00 0.00 0.00 53 1009.8
20260503021204 9 244 0.0 0.0 0.00 0.00 0.00 53 1009.7
20260503021022 10 244 0.0 0.0 0.00 0.00 0.00 53 1009.7
20260503021012 9 244 0.0 0.0 0.00 0.00 0.00 53 1009.7
20260503020930 10 244 0.0 0.0 0.00 0.00 0.00 53 1009.8
20260503020812 10 244 0.0 0.0 0.00 0.00 0.00 52 1009.8
20260503020712 10 244 0.0 0.0 0.00 0.00 0.00 52 1009.8
20260503020703 10 244 0.0 0.0 0.00 0.00 0.00 52 1009.7
20260503020521 10 246 0.0 0.0 0.00 0.00 0.00 52 1009.8
20260503020512 10 246 0.0 0.0 0.00 0.00 0.00 52 1009.8
20260503020412 10 232 0.0 0.0 0.00 0.00 0.00 52 1009.8
20260503020324 10 270 0.0 0.0 0.00 0.00 0.00 52 1009.8
20260503020320 10 232 0.0 0.0 0.00 0.00 0.00 52 1009.8
20260503020110 10 272 0.0 0.0 0.00 0.00 0.00 52 1009.8
20260503020055 10 272 0.0 0.0 0.00 0.00 0.00 52 1009.8
20260503020021 10 272 0.0 0.0 0.00 0.00 0.00 52 1009.8
20260503020016 10 273 0.0 0.0 0.00 0.00 0.00 52 1009.8
20260503015807 10 240 0.0 0.0 0.00 0.00 0.00 52 1009.7
20260503015719 10 238 0.0 0.0 0.00 0.00 0.00 51 1009.7
20260503015715 10 238 0.0 0.0 0.00 0.00 0.00 52 1009.7
20260503015554 10 238 0.0 0.0 0.00 0.00 0.00 51 1009.7
20260503015521 10 261 0.0 0.0 0.00 0.00 0.00 51 1009.7
20260503015505 10 261 0.0 0.0 0.00 0.00 0.00 51 1009.7
20260503015405 10 261 0.0 0.0 0.00 0.00 0.00 51 1009.7
20260503015306 10 261 0.0 0.0 0.00 0.00 0.00 51 1009.6
20260503015205 10 263 0.0 0.0 0.00 0.00 0.00 50 1009.7
20260503015105 10 263 0.0 0.0 0.00 0.00 0.00 51 1009.6
20260503015054 10 265 0.0 0.0 0.00 0.00 0.00 51 1009.6
20260503015021 10 258 0.0 0.0 0.00 0.00 0.00 50 1009.6
20260503015005 10 263 0.0 0.0 0.00 0.00 0.00 50 1009.6
20260503014905 10 263 0.0 0.0 0.00 0.00 0.00 50 1009.6
20260503014804 10 263 0.0 0.0 0.00 0.00 0.00 50 1009.6
20260503014704 10 263 0.0 0.0 0.00 0.00 0.00 50 1009.6
20260503014603 10 0 0.0 0.0 0.00 0.00 0.00 50 1009.6
20260503014553 10 0 0.0 0.0 0.00 0.00 0.00 50 1009.6
20260503014521 10 360 0.0 0.0 0.00 0.00 0.00 50 1009.7
20260503014503 10 0 0.0 0.0 0.00 0.00 0.00 50 1009.7
20260503014402 10 0 0.0 0.0 0.00 0.00 0.00 50 1009.7
20260503014301 10 0 0.0 0.0 0.00 0.00 0.00 50 1009.7
20260503014201 10 0 0.0 0.0 0.00 0.00 0.00 50 1009.6
20260503014053 10 0 0.0 0.0 0.00 0.00 0.00 50 1009.6
20260503014021 10 360 0.0 0.0 0.00 0.00 0.00 50 1009.6
20260503014000 10 0 0.0 0.0 0.00 0.00 0.00 50 1009.6
20260503013859 10 0 0.0 0.0 0.00 0.00 0.00 50 1009.6
20260503013759 10 0 0.0 0.0 0.00 0.00 0.00 50 1009.6
20260503013658 10 0 0.0 0.0 0.00 0.00 0.00 49 1009.6
20260503013554 10 0 0.0 0.0 0.00 0.00 0.00 48 1009.5
20260503013521 11 360 0.0 0.0 0.00 0.00 0.00 48 1009.5
20260503013455 10 0 0.0 0.0 0.00 0.00 0.00 48 1009.5
20260503013355 11 0 0.0 0.0 0.00 0.00 0.00 48 1009.5
20260503013254 11 0 0.0 0.0 0.00 0.00 0.00 49 1009.5
20260503013155 11 0 0.0 0.0 0.00 0.00 0.00 48 1009.5
20260503013056 11 0 0.0 0.0 0.00 0.00 0.00 48 1009.5
20260503013022 11 360 0.0 0.0 0.00 0.00 0.00 48 1009.5
20260503012954 11 0 0.0 0.0 0.00 0.00 0.00 48 1009.5
20260503012853 11 0 0.0 0.0 0.00 0.00 0.00 48 1009.5
20260503012752 11 0 0.0 0.0 0.00 0.00 0.00 48 1009.4
20260503012652 11 0 0.0 0.0 0.00 0.00 0.00 48 1009.4
20260503012550 11 0 0.0 0.0 0.00 0.00 0.00 48 1009.4
20260503012521 11 360 0.0 0.0 0.00 0.00 0.00 48 1009.5
20260503012448 11 0 0.0 0.0 0.00 0.00 0.00 48 1009.5
20260503012349 11 0 0.0 0.0 0.00 0.00 0.00 48 1009.4
20260503012247 11 0 0.0 0.0 0.00 0.00 0.00 48 1009.4
20260503012147 11 0 0.0 0.0 0.00 0.00 0.00 48 1009.4
20260503012047 11 0 0.0 0.0 0.00 0.00 0.00 48 1009.5
20260503012021 11 360 0.0 0.0 0.00 0.00 0.00 47 1009.5
20260503011945 11 0 0.0 0.0 0.00 0.00 0.00 47 1009.5
20260503011845 11 0 0.0 0.0 0.00 0.00 0.00 48 1009.5
20260503011743 11 0 0.0 0.0 0.00 0.00 0.00 48 1009.5
20260503011643 11 0 0.0 0.0 0.00 0.00 0.00 47 1009.4
20260503011603 11 0 0.0 0.0 0.00 0.00 0.00 48 1009.4
20260503011552 11 0 0.0 0.0 0.00 0.00 0.00 48 1009.4
20260503011521 11 360 0.0 0.0 0.00 0.00 0.00 48 1009.4
20260503011343 11 0 0.0 0.0 0.00 0.00 0.00 48 1009.4
20260503011243 11 0 0.0 0.0 0.00 0.00 0.00 47 1009.4
20260503011141 11 0 0.0 0.0 0.00 0.00 0.00 47 1009.4
20260503011041 11 0 0.0 0.0 0.00 0.00 0.00 47 1009.4
20260503011036 11 360 0.0 0.0 0.00 0.00 0.00 47 1009.4
20260503010954 11 0 0.0 0.0 0.00 0.00 0.00 47 1009.3
20260503010949 11 0 0.0 0.0 0.00 0.00 0.00 48 1009.4
20260503010739 11 0 0.0 0.0 0.00 0.00 0.00 48 1009.4
20260503010654 11 0 0.0 0.0 0.00 0.00 0.00 47 1009.3
20260503010645 11 0 0.0 0.0 0.00 0.00 0.00 47 1009.3
20260503010521 11 360 0.0 0.0 0.00 0.00 0.00 47 1009.3
20260503010439 11 0 0.0 0.0 0.00 0.00 0.00 47 1009.3
20260503010338 11 0 0.0 0.0 0.00 0.00 0.00 48 1009.4
20260503010237 11 0 0.0 0.0 0.00 0.00 0.00 48 1009.4
20260503010136 11 0 0.0 0.0 0.00 0.00 0.00 48 1009.4
20260503010056 11 0 0.0 0.0 0.00 0.00 0.00 47 1009.3
20260503010045 11 0 0.0 0.0 0.00 0.00 0.00 47 1009.4
20260503010021 11 360 0.0 0.0 0.00 0.00 0.00 47 1009.3
20260503005835 11 0 0.0 0.0 0.00 0.00 0.00 47 1009.3
20260503005734 11 0 0.0 0.0 0.00 0.00 0.00 48 1009.4
20260503005653 11 0 0.0 0.0 0.00 0.00 0.00 48 1009.4
20260503005648 11 0 0.0 0.0 0.00 0.00 0.00 48 1009.4
20260503005640 11 0 0.0 0.0 0.00 0.00 0.00 47 1009.3
20260503005521 11 360 0.0 0.0 0.00 0.00 0.00 48 1009.3
20260503005433 11 0 0.0 0.0 0.00 0.00 0.00 47 1009.4
20260503005351 11 0 0.0 0.0 0.00 0.00 0.00 47 1009.3
20260503005347 11 0 0.0 0.0 0.00 0.00 0.00 47 1009.3
20260503005342 11 0 0.0 0.0 0.00 0.00 0.00 47 1009.3
20260503005153 11 0 0.0 0.0 0.00 0.00 0.00 47 1009.4
20260503005031 11 0 0.0 0.0 0.00 0.00 0.00 47 1009.3
20260503005021 11 360 0.0 0.0 0.00 0.00 0.00 47 1009.2
20260503004946 11 0 0.0 0.0 0.00 0.00 0.00 47 1009.3
20260503004940 11 0 0.0 0.0 0.00 0.00 0.00 48 1009.3
20260503004731 11 0 0.0 0.0 0.00 0.00 0.00 47 1009.3
20260503004631 11 0 0.0 0.0 0.00 0.00 0.00 47 1009.3
20260503004606 11 360 0.0 0.0 0.00 0.00 0.00 47 1009.2
20260503004529 11 0 0.0 0.0 0.00 0.00 0.00 47 1009.2
20260503004429 11 0 0.0 0.0 0.00 0.00 0.00 47 1009.3
20260503004327 11 0 0.0 0.0 0.00 0.00 0.00 46 1009.2
20260503004227 11 0 0.0 0.0 0.00 0.00 0.00 46 1009.3
20260503004125 11 0 0.0 0.0 0.00 0.00 0.00 47 1009.2
20260503004025 11 0 0.0 0.0 0.00 0.00 0.00 47 1009.2
20260503004022 11 360 0.0 0.0 0.00 0.00 0.00 47 1009.1
20260503003925 11 0 0.0 0.0 0.00 0.00 0.00 47 1009.2
20260503003824 11 0 0.0 0.0 0.00 0.00 0.00 46 1009.2
20260503003724 11 0 0.0 0.0 0.00 0.00 0.00 46 1009.1
20260503003623 11 0 0.0 0.0 0.00 0.00 0.00 45 1009.1
20260503003522 11 0 0.0 0.0 0.00 0.00 0.00 46 1009.1